�������l�o���
Date,Time,MP-1(��Sv/h),MP-2(��Sv/h),MP-3(��Sv/h),MP-4(��Sv/h),MP-5(��Sv/h),MP-6(��Sv/h),MP-7(��Sv/h),MP-8(��Sv/h),����,����(m/s),���J
2023/11/12,00:00,0.522,0.790,0.492,0.998,0.717,0.315,0.569,0.530,��,2.0,��
2023/11/12,00:10,0.522,0.789,0.490,0.998,0.718,0.315,0.570,0.529,��,2.9,��
2023/11/12,00:20,0.521,0.790,0.488,0.997,0.716,0.316,0.570,0.530,���k��,2.9,��
2023/11/12,00:30,0.521,0.792,0.490,0.997,0.718,0.316,0.569,0.530,���k��,3.6,��
2023/11/12,00:40,0.522,0.791,0.490,0.999,0.716,0.315,0.571,0.529,���k��,4.2,��
2023/11/12,00:50,0.521,0.791,0.490,0.998,0.718,0.316,0.570,0.529,���k��,4.8,��
2023/11/12,01:00,0.522,0.790,0.491,0.998,0.717,0.317,0.570,0.529,���k��,3.3,��
2023/11/12,01:10,0.521,0.791,0.489,0.999,0.717,0.316,0.571,0.529,���k��,2.3,��
2023/11/12,01:20,0.521,0.792,0.489,0.999,0.717,0.316,0.571,0.530,���k��,2.2,��
2023/11/12,01:30,0.522,0.790,0.491,0.998,0.716,0.315,0.570,0.530,�k��,2.5,��
2023/11/12,01:40,0.522,0.791,0.489,0.999,0.715,0.315,0.570,0.529,�k��,4.1,��
2023/11/12,01:50,0.522,0.791,0.491,1.000,0.718,0.315,0.571,0.529,�k��,3.6,��
2023/11/12,02:00,0.523,0.791,0.491,0.999,0.717,0.316,0.570,0.529,�k��,5.4,��
2023/11/12,02:10,0.522,0.790,0.490,0.998,0.716,0.315,0.571,0.529,�k��,5.3,��
2023/11/12,02:20,0.521,0.789,0.490,0.999,0.717,0.314,0.569,0.529,�k��,4.9,��
2023/11/12,02:30,0.522,0.791,0.491,0.999,0.717,0.316,0.571,0.530,���k��,3.7,��
2023/11/12,02:40,0.522,0.790,0.491,0.999,0.718,0.317,0.570,0.528,���k��,2.6,��
2023/11/12,02:50,0.522,0.791,0.492,0.999,0.716,0.315,0.569,0.529,���k��,2.8,��
2023/11/12,03:00,0.522,0.791,0.492,0.999,0.717,0.315,0.569,0.530,���k��,2.3,��
2023/11/12,03:10,0.522,0.790,0.490,0.998,0.716,0.314,0.570,0.530,��,2.6,��
2023/11/12,03:20,0.523,0.792,0.489,0.999,0.717,0.315,0.570,0.530,���k��,2.0,��
2023/11/12,03:30,0.523,0.791,0.491,0.998,0.717,0.315,0.571,0.529,���k��,1.2,��
2023/11/12,03:40,0.524,0.790,0.491,0.998,0.718,0.316,0.570,0.531,��,1.7,��
2023/11/12,03:50,0.521,0.790,0.492,1.000,0.720,0.316,0.569,0.529,���k��,2.2,��
2023/11/12,04:00,0.523,0.792,0.490,0.999,0.717,0.315,0.570,0.529,���k��,2.2,��
2023/11/12,04:10,0.522,0.791,0.491,0.998,0.717,0.316,0.570,0.530,���k��,2.8,��
2023/11/12,04:20,0.521,0.791,0.491,0.998,0.718,0.316,0.571,0.531,�k��,2.8,��
2023/11/12,04:30,0.523,0.790,0.489,0.999,0.718,0.315,0.571,0.528,�k�k��,3.5,��
2023/11/12,04:40,0.522,0.792,0.491,0.998,0.718,0.315,0.570,0.530,�k�k��,3.6,��
2023/11/12,04:50,0.522,0.791,0.490,0.997,0.717,0.315,0.571,0.528,�k��,3.4,��
2023/11/12,05:00,0.522,0.792,0.490,1.000,0.719,0.316,0.572,0.529,�k�k��,4.2,��
2023/11/12,05:10,0.523,0.790,0.489,0.999,0.718,0.315,0.570,0.529,�k�k��,4.6,��
2023/11/12,05:20,0.524,0.792,0.492,0.997,0.716,0.316,0.571,0.531,�k�k��,4.1,��
2023/11/12,05:30,0.522,0.791,0.492,0.999,0.716,0.315,0.570,0.529,�k��,3.0,��
2023/11/12,05:40,0.521,0.791,0.489,1.000,0.717,0.315,0.571,0.531,���k��,3.2,��
2023/11/12,05:50,0.522,0.790,0.491,0.999,0.719,0.314,0.570,0.528,���k��,4.2,��
2023/11/12,06:00,0.524,0.790,0.490,0.997,0.714,0.316,0.570,0.529,���k��,4.8,��
2023/11/12,06:10,0.522,0.790,0.491,1.000,0.718,0.315,0.569,0.529,���k��,4.7,��
2023/11/12,06:20,0.522,0.790,0.491,1.000,0.716,0.316,0.572,0.530,���k��,4.5,��
2023/11/12,06:30,0.523,0.790,0.490,0.999,0.717,0.315,0.570,0.530,���k��,4.7,��
2023/11/12,06:40,0.523,0.790,0.490,1.000,0.719,0.318,0.569,0.529,���k��,4.8,��
2023/11/12,06:50,0.520,0.789,0.492,0.998,0.717,0.316,0.572,0.529,���k��,3.6,��
2023/11/12,07:00,0.522,0.788,0.490,0.998,0.717,0.317,0.570,0.529,���k��,5.3,��
2023/11/12,07:10,0.523,0.789,0.491,1.000,0.717,0.315,0.569,0.531,���k��,5.2,��
2023/11/12,07:20,0.522,0.790,0.492,1.000,0.717,0.318,0.571,0.529,���k��,4.4,��
2023/11/12,07:30,0.523,0.791,0.492,1.000,0.719,0.316,0.570,0.529,�k��,4.7,��
2023/11/12,07:40,0.522,0.791,0.491,1.001,0.717,0.317,0.570,0.529,�k��,4.3,��
2023/11/12,07:50,0.524,0.792,0.492,1.000,0.716,0.316,0.570,0.531,�k��,3.8,��
2023/11/12,08:00,0.523,0.792,0.492,1.000,0.717,0.316,0.570,0.530,�k��,4.4,��
2023/11/12,08:10,0.524,0.790,0.490,0.999,0.717,0.314,0.571,0.529,�k��,4.6,��
2023/11/12,08:20,0.524,0.790,0.491,0.998,0.716,0.316,0.571,0.531,�k��,4.3,��
2023/11/12,08:30,0.522,0.791,0.491,1.001,0.717,0.315,0.571,0.530,�k��,4.0,��
2023/11/12,08:40,0.525,0.793,0.493,1.001,0.715,0.316,0.572,0.530,�k�k��,4.5,��
2023/11/12,08:50,0.522,0.791,0.491,0.998,0.718,0.316,0.571,0.531,�k��,5.3,��
2023/11/12,09:00,0.522,0.791,0.491,0.998,0.718,0.314,0.571,0.531,�k��,4.7,��
2023/11/12,09:10,0.522,0.792,0.489,1.002,0.719,0.317,0.569,0.532,�k�k��,4.8,��
2023/11/12,09:20,0.522,0.791,0.493,0.999,0.718,0.316,0.570,0.529,�k��,4.3,��
2023/11/12,09:30,0.524,0.791,0.491,1.000,0.718,0.316,0.571,0.531,�k��,4.0,��
2023/11/12,09:40,0.523,0.791,0.492,1.000,0.718,0.317,0.571,0.531,�k��,4.4,��
2023/11/12,09:50,0.524,0.791,0.491,1.002,0.716,0.315,0.570,0.532,���k��,4.3,��
2023/11/12,10:00,0.524,0.789,0.493,1.000,0.716,0.317,0.570,0.530,�k��,4.5,��
2023/11/12,10:10,0.523,0.792,0.492,1.002,0.718,0.317,0.570,0.529,���k��,4.5,��
2023/11/12,10:20,0.523,0.791,0.492,1.001,0.719,0.317,0.571,0.530,�k��,3.8,��
2023/11/12,10:30,0.523,0.792,0.491,1.001,0.717,0.317,0.571,0.530,�k��,3.4,��
2023/11/12,10:40,0.522,0.793,0.491,0.997,0.717,0.317,0.571,0.530,�k��,3.4,��
2023/11/12,10:50,0.522,0.792,0.492,1.000,0.719,0.317,0.570,0.530,�k��,3.0,��
2023/11/12,11:00,0.524,0.794,0.492,0.998,0.719,0.316,0.571,0.531,���k��,2.6,��
2023/11/12,11:10,0.524,0.792,0.492,0.999,0.719,0.317,0.571,0.530,���k��,2.0,�L
2023/11/12,11:20,0.523,0.792,0.491,1.001,0.719,0.316,0.571,0.531,���k��,1.7,�L
2023/11/12,11:30,0.525,0.792,0.491,1.001,0.719,0.318,0.571,0.531,���k��,1.7,�L
2023/11/12,11:40,0.523,0.790,0.492,1.002,0.719,0.317,0.571,0.534,���k��,2.2,�L
2023/11/12,11:50,0.524,0.792,0.493,1.001,0.719,0.316,0.571,0.532,���k��,2.2,��
2023/11/12,12:00,0.526,0.792,0.491,1.001,0.718,0.318,0.572,0.531,���k��,2.0,��
2023/11/12,12:10,0.525,0.791,0.492,1.000,0.719,0.317,0.571,0.531,���k��,2.0,��
2023/11/12,12:20,0.524,0.794,0.492,1.000,0.718,0.316,0.570,0.531,���k��,1.5,��
2023/11/12,12:30,0.524,0.794,0.492,1.001,0.717,0.318,0.570,0.532,���k��,2.3,��
2023/11/12,12:40,0.524,0.794,0.494,0.999,0.718,0.317,0.569,0.530,���k��,2.6,��
2023/11/12,12:50,0.525,0.793,0.491,0.999,0.719,0.317,0.570,0.531,�k��,2.6,��
2023/11/12,13:00,0.525,0.791,0.490,1.001,0.719,0.317,0.571,0.530,�k�k��,3.0,��
2023/11/12,13:10,0.525,0.792,0.494,1.000,0.720,0.317,0.570,0.530,�k��,2.6,��
2023/11/12,13:20,0.524,0.793,0.492,1.000,0.719,0.318,0.571,0.530,�k��,3.4,�L
2023/11/12,13:30,0.525,0.793,0.493,0.999,0.722,0.318,0.570,0.532,�k�k��,3.4,�L
2023/11/12,13:40,0.526,0.794,0.493,1.003,0.720,0.316,0.571,0.532,�k�k��,3.1,�L
2023/11/12,13:50,0.524,0.794,0.493,1.001,0.720,0.319,0.571,0.532,�k�k��,2.6,��
2023/11/12,14:00,0.525,0.793,0.494,1.003,0.720,0.317,0.570,0.530,�k,2.0,��
2023/11/12,14:10,0.525,0.793,0.494,1.001,0.718,0.318,0.572,0.531,�k�k��,1.5,�L
2023/11/12,14:20,0.524,0.794,0.493,1.002,0.720,0.317,0.570,0.531,�k�k��,2.3,��
2023/11/12,14:30,0.524,0.794,0.493,1.002,0.720,0.318,0.569,0.531,�k�k��,2.2,��
2023/11/12,14:40,0.525,0.794,0.493,1.002,0.719,0.318,0.570,0.531,�k�k��,2.8,��
2023/11/12,14:50,0.524,0.793,0.493,1.003,0.721,0.317,0.571,0.530,�k�k��,3.0,��
2023/11/12,15:00,0.524,0.793,0.494,1.002,0.720,0.318,0.570,0.533,�k�k��,3.1,��
2023/11/12,15:10,0.524,0.792,0.491,1.003,0.720,0.317,0.569,0.531,�k�k��,4.3,��
2023/11/12,15:20,0.525,0.794,0.492,1.003,0.720,0.318,0.571,0.532,�k�k��,5.3,�L
2023/11/12,15:30,0.524,0.796,0.492,1.001,0.718,0.318,0.570,0.531,�k�k��,5.4,��
2023/11/12,15:40,0.523,0.794,0.491,1.003,0.718,0.317,0.569,0.533,�k�k��,5.8,�L
2023/11/12,15:50,0.526,0.793,0.494,1.000,0.719,0.317,0.570,0.531,�k�k��,5.6,�L
2023/11/12,16:00,0.525,0.792,0.492,1.001,0.719,0.318,0.569,0.531,�k�k��,6.3,�L
2023/11/12,16:10,0.526,0.796,0.494,1.001,0.719,0.318,0.569,0.530,�k�k��,6.0,�L
2023/11/12,16:20,0.526,0.793,0.494,1.002,0.721,0.318,0.569,0.531,�k�k��,6.3,�L
2023/11/12,16:30,0.526,0.796,0.496,1.003,0.720,0.318,0.569,0.530,�k�k��,8.1,�L
2023/11/12,16:40,0.528,0.796,0.496,1.004,0.722,0.318,0.571,0.531,�k�k��,6.3,�L
2023/11/12,16:50,0.527,0.796,0.496,1.006,0.722,0.320,0.570,0.532,�k�k��,7.2,�L
2023/11/12,17:00,0.528,0.795,0.498,1.006,0.723,0.323,0.570,0.530,�k�k��,8.8,�L
2023/11/12,17:10,0.527,0.795,0.496,1.006,0.723,0.321,0.571,0.532,�k�k��,7.8,�L
2023/11/12,17:20,0.527,0.794,0.496,1.005,0.723,0.323,0.573,0.533,�k�k��,7.8,�L
2023/11/12,17:30,0.529,0.793,0.497,1.003,0.721,0.323,0.570,0.530,�k�k��,7.9,�L
2023/11/12,17:40,0.527,0.793,0.497,1.005,0.722,0.321,0.573,0.532,�k�k��,8.5,�L
2023/11/12,17:50,0.527,0.794,0.495,1.004,0.721,0.321,0.572,0.530,�k�k��,8.1,�L
2023/11/12,18:00,0.526,0.793,0.495,1.005,0.721,0.321,0.572,0.531,�k�k��,8.0,�L
2023/11/12,18:10,0.526,0.793,0.495,1.005,0.721,0.321,0.572,0.532,�k�k��,8.2,�L
2023/11/12,18:20,0.526,0.791,0.497,1.004,0.719,0.323,0.572,0.532,�k�k��,8.0,�L
2023/11/12,18:30,0.526,0.790,0.496,1.003,0.719,0.323,0.572,0.531,�k�k��,7.7,�L
2023/11/12,18:40,0.525,0.791,0.495,1.003,0.717,0.322,0.570,0.531,�k�k��,7.7,�L
2023/11/12,18:50,0.525,0.787,0.494,1.001,0.716,0.321,0.570,0.530,�k�k��,9.8,�L
2023/11/12,19:00,0.524,0.790,0.494,1.000,0.716,0.322,0.570,0.531,�k�k��,9.3,�L
2023/11/12,19:10,0.525,0.787,0.493,1.001,0.715,0.321,0.570,0.530,�k�k��,9.9,�L
2023/11/12,19:20,0.524,0.787,0.492,1.000,0.715,0.321,0.568,0.530,�k�k��,8.7,�L
2023/11/12,19:30,0.524,0.785,0.493,0.997,0.714,0.320,0.572,0.530,�k��,10.0,�L
2023/11/12,19:40,0.523,0.785,0.491,0.996,0.711,0.320,0.569,0.529,�k��,9.5,�L
2023/11/12,19:50,0.525,0.784,0.490,0.995,0.713,0.320,0.568,0.530,�k�k��,9.0,�L
2023/11/12,20:00,0.522,0.780,0.490,0.995,0.711,0.320,0.569,0.530,�k�k��,8.4,�L
2023/11/12,20:10,0.521,0.781,0.492,0.995,0.711,0.319,0.568,0.530,�k��,9.0,�L
2023/11/12,20:20,0.521,0.780,0.492,0.993,0.708,0.321,0.567,0.530,�k�k��,9.2,�L
2023/11/12,20:30,0.520,0.778,0.491,0.989,0.707,0.320,0.568,0.530,�k��,9.8,�L
2023/11/12,20:40,0.518,0.778,0.491,0.988,0.706,0.320,0.567,0.529,�k��,9.0,�L
2023/11/12,20:50,0.520,0.776,0.488,0.987,0.706,0.319,0.567,0.529,�k��,8.3,�L
2023/11/12,21:00,0.518,0.777,0.490,0.986,0.705,0.320,0.565,0.528,�k��,7.8,�L
2023/11/12,21:10,0.520,0.774,0.491,0.984,0.703,0.321,0.565,0.527,�k��,8.6,�L
2023/11/12,21:20,0.519,0.776,0.492,0.983,0.703,0.322,0.566,0.527,�k��,9.9,�L
2023/11/12,21:30,0.520,0.775,0.492,0.982,0.704,0.323,0.565,0.529,�k��,7.9,�L
2023/11/12,21:40,0.519,0.772,0.490,0.979,0.702,0.322,0.566,0.529,�k��,7.9,�L
2023/11/12,21:50,0.518,0.772,0.490,0.977,0.700,0.323,0.565,0.528,�k��,8.3,�L
2023/11/12,22:00,0.517,0.771,0.491,0.974,0.699,0.323,0.563,0.527,�k��,8.9,�L
2023/11/12,22:10,0.517,0.770,0.491,0.972,0.699,0.323,0.563,0.526,�k�k��,8.5,�L
2023/11/12,22:20,0.517,0.769,0.490,0.972,0.700,0.322,0.563,0.527,�k��,9.4,�L
2023/11/12,22:30,0.517,0.770,0.487,0.970,0.699,0.320,0.564,0.525,�k��,7.9,�L
2023/11/12,22:40,0.518,0.770,0.488,0.969,0.699,0.320,0.562,0.527,�k��,9.4,�L
2023/11/12,22:50,0.514,0.766,0.488,0.970,0.699,0.319,0.563,0.526,�k��,9.8,�L
2023/11/12,23:00,0.516,0.768,0.487,0.969,0.697,0.323,0.563,0.528,�k��,8.0,�L
2023/11/12,23:10,0.516,0.767,0.489,0.971,0.698,0.323,0.563,0.527,�k��,8.0,�L
2023/11/12,23:20,0.514,0.765,0.487,0.966,0.696,0.326,0.562,0.524,-,CALM,�L
2023/11/12,23:30,0.513,0.764,0.490,0.965,0.693,0.322,0.562,0.526,�k��,7.6,�L
2023/11/12,23:40,0.516,0.767,0.489,0.963,0.696,0.323,0.562,0.525,�k��,10.5,�L
2023/11/12,23:50,0.517,0.768,0.491,0.965,0.696,0.324,0.561,0.528,�k�k��,9.0,�L
